| time (UTC) | temp F | wind direction | speed MPH | gust MPH | rain 1hr in | rain 24hr in | rain mn in | humidity % | barometer mb |
| 20260902175237 | 94 | 78 | 3.0 | 8.0 | 0.00 | 0.00 | 0.00 | 47 | 1013.4 |
| 20260902174716 | 95 | 77 | 2.0 | 8.0 | 0.00 | 0.00 | 0.00 | 48 | 1013.4 |
| 20260902173243 | 95 | 98 | 3.0 | 7.0 | 0.00 | 0.00 | 0.00 | 47 | 1013.6 |
| 20260902172238 | 94 | 342 | 1.0 | 6.0 | 0.00 | 0.00 | 0.00 | 50 | 1013.7 |
| 20260902172202 | 93 | 205 | 2.0 | 9.0 | 0.00 | 0.00 | 0.00 | 46 | 1013.9 |
| 20260902170239 | 92 | 83 | 3.0 | 10.0 | 0.00 | 0.00 | 0.00 | 49 | 1014.0 |
| 20260902165723 | 92 | 72 | 3.0 | 9.0 | 0.00 | 0.00 | 0.00 | 50 | 1014.1 |
| 20260902164238 | 92 | 122 | 2.0 | 6.0 | 0.00 | 0.00 | 0.00 | 52 | 1014.1 |
| 20260902163239 | 91 | 339 | 3.0 | 9.0 | 0.00 | 0.00 | 0.00 | 52 | 1014.2 |
| 20260902162237 | 91 | 103 | 2.0 | 7.0 | 0.00 | 0.00 | 0.00 | 52 | 1014.3 |
| 20260902161237 | 91 | 127 | 2.0 | 6.0 | 0.00 | 0.00 | 0.00 | 53 | 1014.3 |
| 20260902160239 | 90 | 78 | 1.0 | 4.0 | 0.00 | 0.00 | 0.00 | 52 | 1014.4 |
| 20260902155238 | 89 | 166 | 2.0 | 6.0 | 0.00 | 0.00 | 0.00 | 55 | 1014.3 |
| 20260902154239 | 89 | 132 | 1.0 | 6.0 | 0.00 | 0.00 | 0.00 | 56 | 1014.3 |
| 20260902153238 | 89 | 159 | 1.0 | 4.0 | 0.00 | 0.00 | 0.00 | 57 | 1014.4 |
| 20260902152239 | 88 | 87 | 1.0 | 4.0 | 0.00 | 0.00 | 0.00 | 57 | 1014.3 |
| 20260902151237 | 88 | 91 | 2.0 | 5.0 | 0.00 | 0.00 | 0.00 | 57 | 1014.3 |
| 20260902150237 | 88 | 132 | 1.0 | 5.0 | 0.00 | 0.00 | 0.00 | 58 | 1014.3 |
| 20260902145239 | 87 | 88 | 1.0 | 6.0 | 0.00 | 0.00 | 0.00 | 59 | 1014.3 |
| 20260902144239 | 87 | 98 | 2.0 | 6.0 | 0.00 | 0.00 | 0.00 | 60 | 1014.4 |
| 20260902143731 | 86 | 105 | 2.0 | 6.0 | 0.00 | 0.00 | 0.00 | 61 | 1014.4 |
| 20260902142724 | 86 | 86 | 1.0 | 5.0 | 0.00 | 0.00 | 0.00 | 61 | 1014.3 |
| 20260902141238 | 86 | 88 | 2.0 | 6.0 | 0.00 | 0.00 | 0.00 | 62 | 1014.3 |
| 20260902140240 | 85 | 74 | 1.0 | 4.0 | 0.00 | 0.00 | 0.00 | 63 | 1014.3 |
| 20260902135237 | 85 | 97 | 2.0 | 4.0 | 0.00 | 0.00 | 0.00 | 63 | 1014.3 |
| 20260902134722 | 85 | 82 | 2.0 | 6.0 | 0.00 | 0.00 | 0.00 | 64 | 1014.4 |
| 20260902133237 | 84 | 89 | 1.0 | 6.0 | 0.00 | 0.00 | 0.00 | 65 | 1014.3 |
| 20260902132240 | 83 | 79 | 1.0 | 4.0 | 0.00 | 0.00 | 0.00 | 66 | 1014.3 |
| 20260902131239 | 83 | 88 | 0.0 | 0.0 | 0.00 | 0.00 | 0.00 | 67 | 1014.3 |
| 20260902130231 | 82 | 88 | 0.0 | 2.0 | 0.00 | 0.00 | 0.00 | 68 | 1014.2 |
| 20260902125231 | 80 | 88 | 0.0 | 2.0 | 0.00 | 0.00 | 0.00 | 70 | 1014.1 |
| 20260902124235 | 79 | 88 | 0.0 | 2.0 | 0.00 | 0.00 | 0.00 | 71 | 1014.0 |
| 20260902123233 | 78 | 88 | 0.0 | 2.0 | 0.00 | 0.00 | 0.00 | 71 | 1013.9 |
| 20260902122233 | 78 | 88 | 0.0 | 2.0 | 0.00 | 0.00 | 0.00 | 71 | 1013.7 |
| 20260902121230 | 78 | 88 | 0.0 | 1.0 | 0.00 | 0.00 | 0.00 | 71 | 1013.5 |
| 20260902120230 | 78 | 88 | 0.0 | 0.0 | 0.00 | 0.00 | 0.00 | 70 | 1013.6 |
| 20260902115231 | 78 | 88 | 0.0 | 1.0 | 0.00 | 0.00 | 0.00 | 70 | 1013.7 |
| 20260902114230 | 79 | 88 | 0.0 | 2.0 | 0.00 | 0.00 | 0.00 | 70 | 1013.6 |
| 20260902113228 | 79 | 112 | 0.0 | 2.0 | 0.00 | 0.00 | 0.00 | 69 | 1013.5 |
| 20260902112721 | 79 | 112 | 0.0 | 2.0 | 0.00 | 0.00 | 0.00 | 68 | 1013.6 |
| 20260902112144 | 79 | 113 | 0.0 | 1.0 | 0.00 | 0.00 | 0.00 | 67 | 1013.6 |
| 20260902110227 | 80 | 113 | 0.0 | 2.0 | 0.00 | 0.00 | 0.00 | 68 | 1013.5 |
| 20260902105228 | 80 | 153 | 0.0 | 0.0 | 0.00 | 0.00 | 0.00 | 67 | 1013.4 |
| 20260902104225 | 80 | 153 | 0.0 | 1.0 | 0.00 | 0.00 | 0.00 | 67 | 1013.5 |
| 20260902103226 | 80 | 152 | 0.0 | 1.0 | 0.00 | 0.00 | 0.00 | 66 | 1013.5 |
| 20260902102225 | 81 | 153 | 0.0 | 1.0 | 0.00 | 0.00 | 0.00 | 66 | 1013.4 |
| 20260902101228 | 81 | 153 | 0.0 | 1.0 | 0.00 | 0.00 | 0.00 | 65 | 1013.4 |
| 20260902100227 | 81 | 153 | 0.0 | 1.0 | 0.00 | 0.00 | 0.00 | 65 | 1013.4 |
| 20260902095225 | 82 | 153 | 0.0 | 2.0 | 0.00 | 0.00 | 0.00 | 64 | 1013.4 |
| 20260902094223 | 82 | 153 | 0.0 | 2.0 | 0.00 | 0.00 | 0.00 | 64 | 1013.3 |
| 20260902093224 | 82 | 153 | 0.0 | 2.0 | 0.00 | 0.00 | 0.00 | 64 | 1013.4 |
| 20260902092220 | 82 | 148 | 1.0 | 4.0 | 0.00 | 0.00 | 0.00 | 64 | 1013.4 |
| 20260902091219 | 82 | 175 | 1.0 | 5.0 | 0.00 | 0.00 | 0.00 | 63 | 1013.5 |
| 20260902091132 | 83 | 167 | 1.0 | 4.0 | 0.00 | 0.00 | 0.00 | 63 | 1013.6 |
| 20260902085217 | 83 | 158 | 1.0 | 5.0 | 0.00 | 0.00 | 0.00 | 62 | 1013.5 |
| 20260902084217 | 83 | 165 | 1.0 | 4.0 | 0.00 | 0.00 | 0.00 | 62 | 1013.6 |
| 20260902083216 | 83 | 154 | 1.0 | 5.0 | 0.00 | 0.00 | 0.00 | 61 | 1013.7 |
| 20260902082217 | 84 | 172 | 2.0 | 5.0 | 0.00 | 0.00 | 0.00 | 61 | 1013.6 |
| 20260902081217 | 84 | 144 | 1.0 | 5.0 | 0.00 | 0.00 | 0.00 | 61 | 1013.6 |
| 20260902080658 | 84 | 150 | 2.0 | 7.0 | 0.00 | 0.00 | 0.00 | 60 | 1013.6 |
| 20260902075214 | 84 | 153 | 2.0 | 8.0 | 0.00 | 0.00 | 0.00 | 60 | 1013.6 |
| 20260902074700 | 84 | 195 | 2.0 | 8.0 | 0.00 | 0.00 | 0.00 | 60 | 1013.7 |
| 20260902073215 | 84 | 166 | 3.0 | 10.0 | 0.00 | 0.00 | 0.00 | 60 | 1013.7 |
| 20260902072215 | 84 | 166 | 4.0 | 11.0 | 0.00 | 0.00 | 0.00 | 60 | 1013.8 |
| 20260902071211 | 84 | 167 | 3.0 | 9.0 | 0.00 | 0.00 | 0.00 | 60 | 1013.8 |
| 20260902070212 | 85 | 167 | 3.0 | 9.0 | 0.00 | 0.00 | 0.00 | 60 | 1013.8 |
| 20260902065211 | 85 | 184 | 3.0 | 9.0 | 0.00 | 0.00 | 0.00 | 60 | 1013.8 |
| 20260902064209 | 85 | 160 | 3.0 | 12.0 | 0.00 | 0.00 | 0.00 | 60 | 1013.7 |
| 20260902063209 | 85 | 174 | 4.0 | 12.0 | 0.00 | 0.00 | 0.00 | 59 | 1013.6 |
| 20260902062645 | 85 | 171 | 3.0 | 8.0 | 0.00 | 0.00 | 0.00 | 59 | 1013.6 |
| 20260902060209 | 86 | 178 | 3.0 | 8.0 | 0.00 | 0.00 | 0.00 | 58 | 1013.4 |
| 20260902055207 | 86 | 154 | 3.0 | 9.0 | 0.00 | 0.00 | 0.00 | 57 | 1013.3 |
| 20260902054209 | 87 | 153 | 4.0 | 10.0 | 0.00 | 0.00 | 0.00 | 57 | 1013.1 |
| 20260902053207 | 88 | 173 | 3.0 | 10.0 | 0.00 | 0.00 | 0.00 | 55 | 1013.0 |
| 20260902052209 | 88 | 131 | 2.0 | 7.0 | 0.00 | 0.00 | 0.00 | 54 | 1013.0 |
| 20260902051643 | 89 | 179 | 2.0 | 9.0 | 0.00 | 0.00 | 0.00 | 53 | 1013.0 |
| 20260902050207 | 89 | 196 | 2.0 | 6.0 | 0.00 | 0.00 | 0.00 | 53 | 1012.8 |
| 20260902045641 | 89 | 96 | 1.0 | 3.0 | 0.00 | 0.00 | 0.00 | 52 | 1012.7 |
| 20260902044208 | 89 | 86 | 0.0 | 3.0 | 0.00 | 0.00 | 0.00 | 52 | 1012.7 |
| 20260902043210 | 89 | 86 | 0.0 | 1.0 | 0.00 | 0.00 | 0.00 | 51 | 1012.8 |
| 20260902042206 | 89 | 86 | 0.0 | 3.0 | 0.00 | 0.00 | 0.00 | 51 | 1012.8 |
| 20260902041207 | 90 | 91 | 1.0 | 3.0 | 0.00 | 0.00 | 0.00 | 51 | 1012.7 |
| 20260902041138 | 90 | 79 | 1.0 | 3.0 | 0.00 | 0.00 | 0.00 | 50 | 1012.6 |
| 20260902035202 | 90 | 126 | 1.0 | 6.0 | 0.00 | 0.00 | 0.00 | 50 | 1012.7 |
| 20260902034202 | 90 | 80 | 1.0 | 4.0 | 0.00 | 0.00 | 0.00 | 50 | 1012.8 |
| 20260902033201 | 90 | 80 | 1.0 | 4.0 | 0.00 | 0.00 | 0.00 | 49 | 1012.7 |
| 20260902032158 | 90 | 88 | 1.0 | 3.0 | 0.00 | 0.00 | 0.00 | 49 | 1012.5 |
| 20260902031159 | 91 | 104 | 1.0 | 5.0 | 0.00 | 0.00 | 0.00 | 49 | 1012.4 |
| 20260902030159 | 91 | 96 | 1.0 | 3.0 | 0.00 | 0.00 | 0.00 | 48 | 1012.3 |
| 20260902025157 | 91 | 94 | 1.0 | 4.0 | 0.00 | 0.00 | 0.00 | 48 | 1012.2 |
| 20260902024200 | 91 | 85 | 1.0 | 6.0 | 0.00 | 0.00 | 0.00 | 48 | 1012.1 |
| 20260902023159 | 91 | 109 | 1.0 | 5.0 | 0.00 | 0.00 | 0.00 | 48 | 1012.0 |
| 20260902022158 | 92 | 90 | 1.0 | 3.0 | 0.00 | 0.00 | 0.00 | 48 | 1011.7 |
| 20260902021159 | 92 | 82 | 1.0 | 4.0 | 0.00 | 0.00 | 0.00 | 48 | 1011.7 |
| 20260902020159 | 92 | 98 | 1.0 | 7.0 | 0.00 | 0.00 | 0.00 | 47 | 1011.6 |
| 20260902015200 | 92 | 76 | 1.0 | 4.0 | 0.00 | 0.00 | 0.00 | 47 | 1011.5 |
| 20260902014159 | 92 | 82 | 1.0 | 5.0 | 0.00 | 0.00 | 0.00 | 46 | 1011.3 |
| 20260902013154 | 93 | 87 | 1.0 | 4.0 | 0.00 | 0.00 | 0.00 | 45 | 1011.2 |
| 20260902012153 | 93 | 115 | 1.0 | 4.0 | 0.00 | 0.00 | 0.00 | 45 | 1011.1 |
| 20260902011150 | 94 | 85 | 2.0 | 6.0 | 0.00 | 0.00 | 0.00 | 44 | 1010.9 |
| 20260902010149 | 94 | 104 | 2.0 | 6.0 | 0.00 | 0.00 | 0.00 | 43 | 1010.8 |
| 20260902005153 | 94 | 114 | 2.0 | 7.0 | 0.00 | 0.00 | 0.00 | 43 | 1010.9 |
| 20260902004641 | 95 | 99 | 3.0 | 8.0 | 0.00 | 0.00 | 0.00 | 43 | 1010.9 |
| 20260902003151 | 96 | 159 | 2.0 | 8.0 | 0.00 | 0.00 | 0.00 | 42 | 1011.1 |
| 20260902002150 | 96 | 95 | 2.0 | 5.0 | 0.00 | 0.00 | 0.00 | 40 | 1011.1 |
| 20260902001632 | 96 | 109 | 2.0 | 6.0 | 0.00 | 0.00 | 0.00 | 39 | 1011.2 |
| 20260902000145 | 97 | 148 | 2.0 | 9.0 | 0.00 | 0.00 | 0.00 | 40 | 1011.2 |
| 20260901235631 | 97 | 190 | 2.0 | 11.0 | 0.00 | 0.00 | 0.00 | 39 | 1011.3 |
| 20260901234144 | 97 | 109 | 3.0 | 10.0 | 0.00 | 0.00 | 0.00 | 39 | 1011.3 |
| 20260901233144 | 98 | 194 | 3.0 | 8.0 | 0.00 | 0.00 | 0.00 | 38 | 1011.3 |
| 20260901232146 | 98 | 88 | 2.0 | 8.0 | 0.00 | 0.00 | 0.00 | 39 | 1011.5 |
| 20260901231617 | 98 | 185 | 3.0 | 10.0 | 0.00 | 0.00 | 0.00 | 38 | 1011.5 |
| 20260901230147 | 99 | 146 | 2.0 | 7.0 | 0.00 | 0.00 | 0.00 | 38 | 1011.3 |
| 20260901225143 | 99 | 78 | 2.0 | 8.0 | 0.00 | 0.00 | 0.00 | 39 | 1011.4 |
| 20260901224145 | 98 | 130 | 1.0 | 9.0 | 0.00 | 0.00 | 0.00 | 38 | 1011.4 |
| 20260901223139 | 98 | 90 | 2.0 | 7.0 | 0.00 | 0.00 | 0.00 | 38 | 1011.5 |
| 20260901222136 | 99 | 82 | 3.0 | 10.0 | 0.00 | 0.00 | 0.00 | 39 | 1011.5 |
| 20260901221137 | 98 | 156 | 3.0 | 9.0 | 0.00 | 0.00 | 0.00 | 39 | 1011.6 |
| 20260901220138 | 97 | 152 | 2.0 | 7.0 | 0.00 | 0.00 | 0.00 | 38 | 1011.7 |
| 20260901215137 | 98 | 169 | 2.0 | 8.0 | 0.00 | 0.00 | 0.00 | 38 | 1011.8 |
| 20260901214138 | 97 | 91 | 3.0 | 8.0 | 0.00 | 0.00 | 0.00 | 38 | 1011.8 |
| 20260901213137 | 98 | 85 | 3.0 | 10.0 | 0.00 | 0.00 | 0.00 | 39 | 1011.9 |
| 20260901212137 | 98 | 155 | 2.0 | 10.0 | 0.00 | 0.00 | 0.00 | 39 | 1012.0 |
| 20260901211138 | 99 | 78 | 2.0 | 7.0 | 0.00 | 0.00 | 0.00 | 39 | 1012.1 |
| 20260901210137 | 98 | 82 | 3.0 | 10.0 | 0.00 | 0.00 | 0.00 | 41 | 1012.1 |
| 20260901205137 | 98 | 62 | 4.0 | 10.0 | 0.00 | 0.00 | 0.00 | 41 | 1012.2 |
| 20260901204133 | 98 | 71 | 2.0 | 8.0 | 0.00 | 0.00 | 0.00 | 41 | 1012.4 |
| 20260901203134 | 97 | 90 | 4.0 | 9.0 | 0.00 | 0.00 | 0.00 | 41 | 1012.4 |
| 20260901202134 | 97 | 95 | 4.0 | 9.0 | 0.00 | 0.00 | 0.00 | 41 | 1012.5 |
| 20260901201135 | 96 | 87 | 2.0 | 7.0 | 0.00 | 0.00 | 0.00 | 41 | 1012.6 |
| 20260901200144 | 96 | 82 | 3.0 | 9.0 | 0.00 | 0.00 | 0.00 | 42 | 1012.8 |
| 20260901200057 | 96 | 82 | 3.0 | 9.0 | 0.00 | 0.00 | 0.00 | 42 | 1012.9 |
| 20260901194129 | 96 | 159 | 3.0 | 10.0 | 0.00 | 0.00 | 0.00 | 43 | 1012.9 |
| 20260901193130 | 95 | 158 | 4.0 | 11.0 | 0.00 | 0.00 | 0.00 | 45 | 1013.1 |
| 20260901192128 | 96 | 38 | 4.0 | 12.0 | 0.00 | 0.00 | 0.00 | 43 | 1013.1 |
| 20260901191128 | 96 | 82 | 4.0 | 12.0 | 0.00 | 0.00 | 0.00 | 44 | 1013.3 |
| 20260901190130 | 95 | 28 | 4.0 | 9.0 | 0.00 | 0.00 | 0.00 | 44 | 1013.4 |
| 20260901185128 | 96 | 82 | 3.0 | 12.0 | 0.00 | 0.00 | 0.00 | 44 | 1013.6 |
| 20260901184128 | 96 | 79 | 2.0 | 7.0 | 0.00 | 0.00 | 0.00 | 45 | 1013.8 |
| 20260901183129 | 95 | 100 | 3.0 | 9.0 | 0.00 | 0.00 | 0.00 | 45 | 1014.0 |
| 20260901183049 | 95 | 80 | 4.0 | 9.0 | 0.00 | 0.00 | 0.00 | 44 | 1014.1 |
| 20260901181130 | 95 | 72 | 3.0 | 10.0 | 0.00 | 0.00 | 0.00 | 45 | 1014.3 |
| 20260901180129 | 95 | 184 | 5.0 | 14.0 | 0.00 | 0.00 | 0.00 | 45 | 1014.4 |